MSR920 HECA-OBBI

Flight info

Callsign MSR920
Flight time 2h 30m
Altitude 37000
Route CVO L315 HGD M872 WEJ L604 KFA M691 LADNA
Aircraft A320/M-SDE3FGHIRWY/LB1

Departure

Time 2026-05-08 10:11
Airport Cairo International Airport (HECA)

Arrival

Time 2026-05-08 12:41
Airport Bahrain International Airport (OBBI)
Time Latitude Longitude Altitude Speed Heading
2026-05-08 09:44 30.10736 31.39682 370 ft 0 kts 256°
2026-05-08 10:01 30.10736 31.39684 370 ft 2 kts 256°
2026-05-08 10:01 30.10742 31.39710 371 ft 3 kts 253°
2026-05-08 10:01 30.10748 31.39736 370 ft 3 kts 256°
2026-05-08 10:02 30.10756 31.39761 372 ft 3 kts 230°
2026-05-08 10:02 30.10772 31.39774 372 ft 3 kts 176°
2026-05-08 10:02 30.10779 31.39773 371 ft 0 kts 166°
2026-05-08 10:04 30.10773 31.39775 372 ft 3 kts 166°
2026-05-08 10:04 30.10738 31.39786 374 ft 7 kts 165°
2026-05-08 10:05 30.10682 31.39802 370 ft 10 kts 166°
2026-05-08 10:05 30.10609 31.39824 371 ft 11 kts 165°
2026-05-08 10:05 30.10544 31.39844 374 ft 8 kts 165°
2026-05-08 10:05 30.10493 31.39860 377 ft 7 kts 166°
2026-05-08 10:06 30.10449 31.39872 379 ft 7 kts 171°
2026-05-08 10:06 30.10370 31.39812 380 ft 17 kts 229°
2026-05-08 10:06 30.10296 31.39713 385 ft 15 kts 229°
2026-05-08 10:06 30.10228 31.39621 388 ft 15 kts 229°
2026-05-08 10:07 30.10146 31.39572 389 ft 14 kts 163°
2026-05-08 10:07 30.10063 31.39647 389 ft 15 kts 140°
2026-05-08 10:07 30.10032 31.39679 389 ft 2 kts 136°
2026-05-08 10:07 30.10026 31.39686 388 ft 1 kts 133°
2026-05-08 10:08 30.10024 31.39689 388 ft 0 kts 131°
2026-05-08 10:08 30.10023 31.39690 388 ft 0 kts 131°
2026-05-08 10:08 30.10010 31.39716 388 ft 10 kts 118°
2026-05-08 10:09 30.10002 31.39807 388 ft 12 kts 84°
2026-05-08 10:09 30.10024 31.39905 388 ft 11 kts 50°
2026-05-08 10:09 30.10029 31.39912 388 ft 0 kts 49°
2026-05-08 10:09 30.10030 31.39913 388 ft 1 kts 49°
2026-05-08 10:10 30.10040 31.39927 388 ft 7 kts 48°
2026-05-08 10:10 30.10225 31.40172 388 ft 73 kts 49°
2026-05-08 10:10 30.10682 31.40780 386 ft 125 kts 49°
2026-05-08 10:10 30.11322 31.41648 534 ft 152 kts 47°
2026-05-08 10:11 30.11984 31.42635 1037 ft 159 kts 61°
2026-05-08 10:11 30.12065 31.43923 1582 ft 174 kts 101°
2026-05-08 10:11 30.11327 31.45176 1848 ft 208 kts 136°
2026-05-08 10:11 30.10083 31.46229 2123 ft 234 kts 139°
2026-05-08 10:12 30.08684 31.47376 2501 ft 258 kts 140°
2026-05-08 10:12 30.07183 31.48596 3204 ft 269 kts 140°
2026-05-08 10:12 30.05634 31.49845 4095 ft 274 kts 140°
2026-05-08 10:12 30.04060 31.51116 4952 ft 278 kts 141°
2026-05-08 10:13 30.02463 31.52409 5773 ft 283 kts 141°
2026-05-08 10:13 30.00834 31.53729 6517 ft 289 kts 141°
2026-05-08 10:13 29.99172 31.55077 7247 ft 293 kts 142°
2026-05-08 10:13 29.97499 31.56434 8055 ft 295 kts 143°
2026-05-08 10:14 29.95808 31.57808 8808 ft 299 kts 143°
2026-05-08 10:14 29.94087 31.59207 9490 ft 305 kts 142°
2026-05-08 10:14 29.92329 31.60638 10168 ft 312 kts 143°
2026-05-08 10:14 29.90513 31.62116 10489 ft 330 kts 143°
2026-05-08 10:15 29.88572 31.63695 10623 ft 353 kts 143°
2026-05-08 10:15 29.86509 31.65368 10859 ft 370 kts 143°
2026-05-08 10:15 29.84393 31.67078 11475 ft 373 kts 144°
2026-05-08 10:15 29.82248 31.68811 12016 ft 380 kts 144°
2026-05-08 10:16 29.80084 31.70562 12709 ft 380 kts 144°
2026-05-08 10:16 29.77912 31.72322 13265 ft 386 kts 144°
2026-05-08 10:16 29.75703 31.74115 13845 ft 389 kts 144°
2026-05-08 10:16 29.73480 31.75913 14420 ft 393 kts 145°
2026-05-08 10:17 29.71234 31.77727 15002 ft 395 kts 145°
2026-05-08 10:17 29.68984 31.79546 15561 ft 397 kts 145°
2026-05-08 10:17 29.66705 31.81389 15993 ft 404 kts 145°
2026-05-08 10:17 29.64392 31.83255 16476 ft 408 kts 145°
2026-05-08 10:18 29.62060 31.85133 17014 ft 411 kts 145°
2026-05-08 10:18 29.59703 31.87032 17521 ft 416 kts 145°
2026-05-08 10:18 29.57323 31.88946 18050 ft 420 kts 145°
2026-05-08 10:18 29.54918 31.90876 18562 ft 424 kts 145°
2026-05-08 10:19 29.52495 31.92824 19033 ft 428 kts 145°
2026-05-08 10:19 29.50048 31.94795 19496 ft 432 kts 145°
2026-05-08 10:19 29.47577 31.96787 19942 ft 435 kts 145°
2026-05-08 10:20 29.43428 32.00128 20730 ft 442 kts 144°
2026-05-08 10:20 29.40899 32.02160 21184 ft 446 kts 144°
2026-05-08 10:20 29.38346 32.04209 21625 ft 451 kts 144°
2026-05-08 10:20 29.35766 32.06278 22060 ft 455 kts 144°
2026-05-08 10:21 29.33159 32.08365 22468 ft 459 kts 144°
2026-05-08 10:21 29.30533 32.10467 22879 ft 463 kts 144°
2026-05-08 10:21 29.27883 32.12587 23268 ft 467 kts 144°
2026-05-08 10:21 29.25213 32.14723 23660 ft 470 kts 144°
2026-05-08 10:22 29.22520 32.16875 23984 ft 474 kts 144°
2026-05-08 10:22 29.19809 32.19037 24328 ft 476 kts 144°
2026-05-08 10:22 29.17082 32.21212 24638 ft 480 kts 144°
2026-05-08 10:22 29.14334 32.23400 24972 ft 482 kts 144°
2026-05-08 10:23 29.11574 32.25594 25318 ft 484 kts 144°
2026-05-08 10:23 29.08802 32.27800 25652 ft 487 kts 144°
2026-05-08 10:23 29.06017 32.30019 25972 ft 489 kts 144°
2026-05-08 10:23 29.03217 32.32249 26303 ft 492 kts 144°
2026-05-08 10:24 29.00400 32.34486 26632 ft 494 kts 144°
2026-05-08 10:24 28.97566 32.36735 26932 ft 498 kts 143°
2026-05-08 10:24 28.94716 32.38996 27246 ft 501 kts 143°
2026-05-08 10:24 28.91845 32.41270 27566 ft 503 kts 143°
2026-05-08 10:25 28.88963 32.43551 27881 ft 506 kts 143°
2026-05-08 10:25 28.86060 32.45844 28135 ft 509 kts 144°
2026-05-08 10:25 28.83147 32.48151 28419 ft 511 kts 143°
2026-05-08 10:25 28.80228 32.50469 28736 ft 512 kts 143°
2026-05-08 10:26 28.77310 32.52785 29163 ft 511 kts 143°
2026-05-08 10:26 28.74393 32.55092 29587 ft 510 kts 144°
2026-05-08 10:26 28.71476 32.57393 30015 ft 510 kts 144°
2026-05-08 10:26 28.68559 32.59695 30400 ft 510 kts 144°
2026-05-08 10:27 28.65646 32.61993 30769 ft 509 kts 144°
2026-05-08 10:27 28.62729 32.64284 31138 ft 509 kts 144°
2026-05-08 10:27 28.59811 32.66572 31497 ft 509 kts 144°
2026-05-08 10:27 28.56938 32.68828 31867 ft 509 kts 144°
2026-05-08 10:28 28.53999 32.71138 32228 ft 508 kts 144°
2026-05-08 10:28 28.51090 32.73420 32593 ft 508 kts 144°
2026-05-08 10:28 28.48184 32.75704 32974 ft 507 kts 144°
2026-05-08 10:28 28.45283 32.77985 33362 ft 507 kts 144°
2026-05-08 10:29 28.42385 32.80256 33758 ft 506 kts 144°
2026-05-08 10:29 28.39489 32.82525 34138 ft 505 kts 145°
2026-05-08 10:29 28.36596 32.84793 34480 ft 504 kts 145°
2026-05-08 10:29 28.33716 32.87049 34827 ft 503 kts 145°
2026-05-08 10:30 28.30840 32.89301 35184 ft 501 kts 145°
2026-05-08 10:30 28.27975 32.91537 35481 ft 500 kts 145°
2026-05-08 10:30 28.25145 32.93740 35787 ft 499 kts 145°
2026-05-08 10:30 28.22245 32.95994 36086 ft 498 kts 145°
2026-05-08 10:31 28.19396 32.98211 36400 ft 496 kts 145°
2026-05-08 10:31 28.16598 33.00396 36702 ft 495 kts 145°
2026-05-08 10:31 28.13769 33.02606 36961 ft 494 kts 145°
2026-05-08 10:32 28.08074 33.07044 37013 ft 500 kts 146°
2026-05-08 10:32 28.02318 33.11507 37012 ft 502 kts 146°
2026-05-08 10:33 27.96598 33.16058 37032 ft 503 kts 143°
2026-05-08 10:33 27.90921 33.20722 36990 ft 505 kts 143°
2026-05-08 10:34 27.85231 33.25384 37005 ft 505 kts 144°
2026-05-08 10:34 27.79527 33.30014 37009 ft 505 kts 144°
2026-05-08 10:35 27.73816 33.34632 37010 ft 505 kts 144°
2026-05-08 10:35 27.68103 33.39248 37003 ft 505 kts 144°
2026-05-08 10:36 27.62385 33.43855 37004 ft 505 kts 144°
2026-05-08 10:36 27.56665 33.48456 37003 ft 505 kts 144°
2026-05-08 10:37 27.50954 33.53052 37004 ft 504 kts 144°
2026-05-08 10:37 27.45245 33.57643 37006 ft 504 kts 144°
2026-05-08 10:38 27.39534 33.62226 37006 ft 504 kts 144°
2026-05-08 10:38 27.33823 33.66804 37005 ft 504 kts 144°
2026-05-08 10:39 27.28107 33.71383 36984 ft 504 kts 144°
2026-05-08 10:39 27.22428 33.75980 36986 ft 503 kts 140°
2026-05-08 10:40 27.17685 33.81667 36992 ft 498 kts 121°
2026-05-08 10:40 27.14618 33.88535 36988 ft 490 kts 107°
2026-05-08 10:41 27.12111 33.95657 36998 ft 491 kts 108°
2026-05-08 10:41 27.09571 34.02775 36984 ft 492 kts 108°
2026-05-08 10:42 27.07023 34.09874 36980 ft 492 kts 108°
2026-05-08 10:42 27.04465 34.17001 36981 ft 493 kts 108°
2026-05-08 10:43 27.01908 34.24133 36991 ft 493 kts 108°
2026-05-08 10:43 26.99353 34.31272 36979 ft 494 kts 108°
2026-05-08 10:44 26.96789 34.38424 36974 ft 494 kts 108°
2026-05-08 10:44 26.94209 34.45570 36973 ft 495 kts 108°
2026-05-08 10:45 26.91619 34.52723 36971 ft 496 kts 108°
2026-05-08 10:45 26.89029 34.59889 36966 ft 496 kts 108°
2026-05-08 10:46 26.86440 34.67063 36963 ft 497 kts 108°
2026-05-08 10:46 26.83833 34.74235 36980 ft 498 kts 108°
2026-05-08 10:47 26.81210 34.81418 36963 ft 499 kts 108°
2026-05-08 10:47 26.78594 34.88608 36958 ft 499 kts 108°
2026-05-08 10:48 26.75970 34.95805 36962 ft 500 kts 108°
2026-05-08 10:48 26.73338 35.03002 36968 ft 500 kts 108°
2026-05-08 10:49 26.70697 35.10210 36956 ft 501 kts 108°
2026-05-08 10:49 26.68057 35.17419 36955 ft 501 kts 108°
2026-05-08 10:50 26.65412 35.24635 36959 ft 502 kts 108°
2026-05-08 10:50 26.62751 35.31851 36963 ft 502 kts 108°
2026-05-08 10:51 26.60081 35.39070 36956 ft 503 kts 108°
2026-05-08 10:51 26.57415 35.46296 36945 ft 503 kts 108°
2026-05-08 10:52 26.54745 35.53469 36957 ft 504 kts 109°
2026-05-08 10:52 26.51991 35.60676 36954 ft 505 kts 109°
2026-05-08 10:53 26.49212 35.67877 36942 ft 505 kts 109°
2026-05-08 10:53 26.46445 35.75082 36943 ft 505 kts 109°
2026-05-08 10:54 26.43687 35.82295 36930 ft 505 kts 110°
2026-05-08 10:54 26.40921 35.89506 36938 ft 506 kts 110°
2026-05-08 10:55 26.38137 35.96710 36935 ft 506 kts 110°
2026-05-08 10:55 26.35354 36.03916 36935 ft 506 kts 110°
2026-05-08 10:56 26.32575 36.11118 36932 ft 506 kts 110°
2026-05-08 10:56 26.29790 36.18316 36934 ft 506 kts 110°
2026-05-08 10:57 26.27002 36.25511 36940 ft 506 kts 110°
2026-05-08 10:57 26.22813 36.36284 36938 ft 505 kts 110°
2026-05-08 10:58 26.20047 36.43467 36932 ft 503 kts 106°
2026-05-08 10:58 26.18570 36.50968 36940 ft 491 kts 88°
2026-05-08 10:59 26.18913 36.58454 36929 ft 482 kts 77°
2026-05-08 10:59 26.19674 36.65876 36933 ft 483 kts 77°
2026-05-08 11:00 26.20408 36.73303 36941 ft 483 kts 77°
2026-05-08 11:00 26.21133 36.80732 36946 ft 483 kts 78°
2026-05-08 11:01 26.21858 36.88111 36939 ft 483 kts 78°
2026-05-08 11:01 26.22591 36.95542 36939 ft 482 kts 78°
2026-05-08 11:02 26.23693 37.06685 36938 ft 483 kts 78°
2026-05-08 11:03 26.24411 37.14136 36939 ft 484 kts 79°
2026-05-08 11:03 26.25127 37.21593 36947 ft 485 kts 79°
2026-05-08 11:04 26.25843 37.29067 36987 ft 486 kts 79°
2026-05-08 11:04 26.26557 37.36549 36975 ft 486 kts 79°
2026-05-08 11:05 26.27149 37.42771 36972 ft 486 kts 79°
2026-05-08 11:05 26.27979 37.51525 36964 ft 486 kts 80°
2026-05-08 11:06 26.28573 37.57752 36955 ft 487 kts 81°
2026-05-08 11:06 26.29275 37.65255 36954 ft 487 kts 81°
2026-05-08 11:07 26.29963 37.72770 36951 ft 488 kts 82°
2026-05-08 11:07 26.30450 37.78063 36943 ft 488 kts 82°
2026-05-08 11:08 26.30582 37.79462 36933 ft 488 kts 82°
2026-05-08 11:08 26.31286 37.86986 36934 ft 488 kts 82°
2026-05-08 11:09 26.31974 37.94521 36969 ft 489 kts 82°
2026-05-08 11:09 26.32654 38.02055 36960 ft 489 kts 82°
2026-05-08 11:10 26.33333 38.09594 36963 ft 489 kts 83°
2026-05-08 11:10 26.34005 38.17081 36964 ft 489 kts 82°
2026-05-08 11:11 26.34690 38.24671 36962 ft 489 kts 83°
2026-05-08 11:11 26.35358 38.32168 36963 ft 489 kts 83°
2026-05-08 11:12 26.36019 38.39713 36969 ft 489 kts 83°
2026-05-08 11:12 26.36679 38.47255 36974 ft 489 kts 83°
2026-05-08 11:13 26.37333 38.54809 37003 ft 489 kts 83°
2026-05-08 11:13 26.37987 38.62349 37004 ft 489 kts 83°
2026-05-08 11:14 26.38638 38.69888 36993 ft 488 kts 84°
2026-05-08 11:14 26.39289 38.77430 36995 ft 488 kts 84°
2026-05-08 11:15 26.39935 38.84973 36998 ft 489 kts 84°
2026-05-08 11:15 26.40571 38.92521 36991 ft 489 kts 85°
2026-05-08 11:16 26.41201 39.00076 36993 ft 489 kts 85°
2026-05-08 11:16 26.41835 39.07635 36997 ft 490 kts 85°
2026-05-08 11:17 26.42459 39.15198 37001 ft 489 kts 86°
2026-05-08 11:17 26.43076 39.22757 37001 ft 489 kts 86°
2026-05-08 11:18 26.43659 39.30322 37002 ft 489 kts 87°
2026-05-08 11:18 26.44050 39.37895 36987 ft 489 kts 90°
2026-05-08 11:19 26.44367 39.45474 36994 ft 489 kts 90°
2026-05-08 11:19 26.44720 39.53057 36999 ft 490 kts 89°
2026-05-08 11:20 26.45101 39.60593 36988 ft 490 kts 90°
2026-05-08 11:20 26.45478 39.68184 36997 ft 490 kts 90°
2026-05-08 11:21 26.45850 39.75778 37017 ft 490 kts 90°
2026-05-08 11:21 26.46208 39.83373 36994 ft 490 kts 91°
2026-05-08 11:22 26.46563 39.90967 36999 ft 490 kts 91°
2026-05-08 11:22 26.46915 39.98568 37003 ft 491 kts 91°
2026-05-08 11:23 26.47264 40.06171 36980 ft 491 kts 92°
2026-05-08 11:23 26.47614 40.13795 36968 ft 492 kts 92°
2026-05-08 11:24 26.47954 40.21437 36972 ft 494 kts 92°
2026-05-08 11:24 26.48299 40.29098 36947 ft 495 kts 93°
2026-05-08 11:25 26.48641 40.36775 36987 ft 495 kts 93°
2026-05-08 11:25 26.48972 40.44450 36985 ft 495 kts 93°
2026-05-08 11:26 26.49295 40.52132 36964 ft 496 kts 94°
2026-05-08 11:26 26.49619 40.59828 36963 ft 497 kts 94°
2026-05-08 11:27 26.49947 40.67531 36971 ft 497 kts 94°
2026-05-08 11:27 26.50262 40.75242 36977 ft 498 kts 94°
2026-05-08 11:28 26.50571 40.82965 36982 ft 498 kts 94°
2026-05-08 11:28 26.50881 40.90684 36992 ft 498 kts 94°
2026-05-08 11:29 26.51188 40.98424 36965 ft 500 kts 94°
2026-05-08 11:29 26.51311 41.06160 36966 ft 494 kts 102°
2026-05-08 11:30 26.50777 41.13751 36956 ft 494 kts 102°
2026-05-08 11:30 26.50227 41.21414 36961 ft 496 kts 102°
2026-05-08 11:31 26.49676 41.29104 36970 ft 497 kts 102°
2026-05-08 11:31 26.49129 41.36806 36937 ft 498 kts 103°
2026-05-08 11:32 26.48587 41.44529 36953 ft 500 kts 103°
2026-05-08 11:32 26.48028 41.52268 36970 ft 501 kts 103°
2026-05-08 11:33 26.47459 41.60015 36957 ft 501 kts 103°
2026-05-08 11:33 26.46883 41.67774 37007 ft 502 kts 103°
2026-05-08 11:34 26.46314 41.75518 37010 ft 502 kts 103°
2026-05-08 11:34 26.45741 41.83278 36988 ft 501 kts 103°
2026-05-08 11:35 26.45160 41.91026 37004 ft 501 kts 103°
2026-05-08 11:35 26.44566 41.98766 36966 ft 500 kts 103°
2026-05-08 11:36 26.43976 42.06495 36991 ft 500 kts 103°
2026-05-08 11:36 26.43383 42.14222 37009 ft 500 kts 103°
2026-05-08 11:37 26.42788 42.21942 36983 ft 500 kts 104°
2026-05-08 11:37 26.42186 42.29671 37007 ft 500 kts 104°
2026-05-08 11:38 26.41581 42.37402 37025 ft 500 kts 104°
2026-05-08 11:38 26.40965 42.45128 37015 ft 500 kts 104°
2026-05-08 11:39 26.40353 42.52861 37044 ft 500 kts 104°
2026-05-08 11:39 26.39737 42.60591 37048 ft 500 kts 104°
2026-05-08 11:40 26.39112 42.68317 37035 ft 500 kts 104°
2026-05-08 11:40 26.38483 42.76039 37040 ft 500 kts 104°
2026-05-08 11:41 26.37851 42.83770 37038 ft 501 kts 104°
2026-05-08 11:41 26.37215 42.91501 37027 ft 501 kts 104°
2026-05-08 11:42 26.36575 42.99237 37042 ft 501 kts 104°
2026-05-08 11:42 26.35926 43.06972 37001 ft 502 kts 105°
2026-05-08 11:43 26.35278 43.14724 37000 ft 502 kts 105°
2026-05-08 11:43 26.34625 43.22482 36993 ft 503 kts 105°
2026-05-08 11:44 26.33964 43.30243 37010 ft 503 kts 105°
2026-05-08 11:44 26.33301 43.37960 36993 ft 503 kts 105°
2026-05-08 11:45 26.32628 43.45729 36960 ft 504 kts 105°
2026-05-08 11:45 26.31955 43.53504 36948 ft 505 kts 106°
2026-05-08 11:46 26.31275 43.61299 36944 ft 506 kts 106°
2026-05-08 11:46 26.30590 43.69103 36927 ft 506 kts 106°
2026-05-08 11:47 26.29909 43.76912 36937 ft 508 kts 104°
2026-05-08 11:47 26.29858 43.84883 36931 ft 516 kts 99°
2026-05-08 11:48 26.29939 43.92895 36948 ft 517 kts 99°
2026-05-08 11:48 26.30009 44.00898 36993 ft 517 kts 99°
2026-05-08 11:49 26.30066 44.08909 36977 ft 516 kts 99°
2026-05-08 11:49 26.30120 44.16906 36980 ft 516 kts 99°
2026-05-08 11:50 26.30169 44.24907 36953 ft 516 kts 99°
2026-05-08 11:50 26.30218 44.32898 36982 ft 515 kts 99°
2026-05-08 11:51 26.30264 44.40881 36990 ft 515 kts 99°
2026-05-08 11:51 26.30300 44.48861 36986 ft 515 kts 99°
2026-05-08 11:52 26.30320 44.55493 37020 ft 515 kts 99°
2026-05-08 11:52 26.30343 44.63481 36996 ft 516 kts 99°
2026-05-08 11:53 26.30361 44.71478 36999 ft 516 kts 99°
2026-05-08 11:53 26.30383 44.79487 37004 ft 517 kts 99°
2026-05-08 11:54 26.30410 44.87497 37012 ft 517 kts 99°
2026-05-08 11:54 26.30432 44.95513 37013 ft 517 kts 99°
2026-05-08 11:55 26.30441 45.03526 37003 ft 517 kts 99°
2026-05-08 11:55 26.30435 45.11520 37014 ft 516 kts 99°
2026-05-08 11:56 26.30427 45.19515 37008 ft 516 kts 99°
2026-05-08 11:56 26.30423 45.27466 36987 ft 507 kts 99°
2026-05-08 11:57 26.30429 45.35169 37015 ft 501 kts 99°
2026-05-08 11:57 26.30394 45.43019 37009 ft 511 kts 99°
2026-05-08 11:58 26.30357 45.50944 37009 ft 511 kts 99°
2026-05-08 11:58 26.30340 45.58865 37016 ft 511 kts 99°
2026-05-08 11:59 26.30305 45.70747 37017 ft 511 kts 99°
2026-05-08 11:59 26.30273 45.78673 37012 ft 511 kts 99°
2026-05-08 12:00 26.30229 45.86596 37016 ft 512 kts 99°
2026-05-08 12:00 26.30184 45.94523 37024 ft 512 kts 99°
2026-05-08 12:01 26.30135 46.02456 37024 ft 512 kts 99°
2026-05-08 12:01 26.30086 46.10378 37014 ft 511 kts 98°
2026-05-08 12:02 26.30035 46.18299 37024 ft 511 kts 98°
2026-05-08 12:02 26.29975 46.26209 37038 ft 510 kts 99°
2026-05-08 12:03 26.29907 46.34107 37039 ft 510 kts 99°
2026-05-08 12:03 26.29834 46.42000 37038 ft 509 kts 99°
2026-05-08 12:04 26.29760 46.49883 37041 ft 509 kts 99°
2026-05-08 12:04 26.29680 46.57764 37038 ft 509 kts 99°
2026-05-08 12:05 26.29599 46.65644 37026 ft 508 kts 98°
2026-05-08 12:05 26.29515 46.73519 37036 ft 508 kts 98°
2026-05-08 12:06 26.29420 46.81394 37038 ft 508 kts 98°
2026-05-08 12:06 26.29320 46.89277 37041 ft 509 kts 98°
2026-05-08 12:07 26.29219 46.97152 37044 ft 508 kts 98°
2026-05-08 12:07 26.29110 47.04982 37036 ft 509 kts 98°
2026-05-08 12:08 26.28999 47.12870 37027 ft 509 kts 98°
2026-05-08 12:08 26.28887 47.20765 37027 ft 510 kts 98°
2026-05-08 12:09 26.28766 47.28675 37024 ft 510 kts 98°
2026-05-08 12:09 26.28618 47.36584 37018 ft 511 kts 98°
2026-05-08 12:10 26.28465 47.44496 37006 ft 511 kts 98°
2026-05-08 12:10 26.28316 47.52428 37008 ft 512 kts 98°
2026-05-08 12:11 26.28156 47.60369 37012 ft 513 kts 98°
2026-05-08 12:11 26.28082 47.68327 37019 ft 518 kts 92°
2026-05-08 12:12 26.29393 47.76309 37008 ft 527 kts 82°
2026-05-08 12:12 26.31043 47.84274 37002 ft 528 kts 82°
2026-05-08 12:13 26.32665 47.92248 36975 ft 528 kts 82°
2026-05-08 12:13 26.34274 48.00228 36989 ft 527 kts 82°
2026-05-08 12:14 26.35885 48.08202 36997 ft 527 kts 82°
2026-05-08 12:14 26.36696 48.12187 36830 ft 526 kts 82°
2026-05-08 12:14 26.37506 48.16164 36570 ft 525 kts 82°
2026-05-08 12:15 26.38311 48.20133 36320 ft 524 kts 83°
2026-05-08 12:15 26.39110 48.24094 36056 ft 523 kts 83°
2026-05-08 12:15 26.39907 48.28041 35814 ft 522 kts 83°
2026-05-08 12:15 26.40702 48.31989 35566 ft 521 kts 83°
2026-05-08 12:16 26.41493 48.35930 35331 ft 521 kts 83°
2026-05-08 12:16 26.42282 48.39872 35087 ft 520 kts 83°
2026-05-08 12:16 26.43066 48.43811 34852 ft 520 kts 83°
2026-05-08 12:16 26.43847 48.47752 34615 ft 520 kts 83°
2026-05-08 12:17 26.44629 48.51692 34384 ft 520 kts 83°
2026-05-08 12:17 26.45411 48.55629 34158 ft 520 kts 83°
2026-05-08 12:17 26.46192 48.59567 33920 ft 520 kts 83°
2026-05-08 12:17 26.46971 48.63503 33660 ft 520 kts 83°
2026-05-08 12:18 26.47556 48.67459 33389 ft 512 kts 92°
2026-05-08 12:18 26.47685 48.71399 33137 ft 508 kts 95°
2026-05-08 12:18 26.47775 48.75344 32845 ft 509 kts 95°
2026-05-08 12:18 26.47863 48.79291 32593 ft 509 kts 95°
2026-05-08 12:19 26.47952 48.83239 32338 ft 509 kts 95°
2026-05-08 12:19 26.48041 48.87190 32092 ft 509 kts 95°
2026-05-08 12:19 26.48129 48.91145 31844 ft 510 kts 95°
2026-05-08 12:19 26.48214 48.95099 31602 ft 510 kts 95°
2026-05-08 12:20 26.48297 48.99061 31365 ft 510 kts 95°
2026-05-08 12:20 26.48377 49.03016 31110 ft 510 kts 94°
2026-05-08 12:20 26.48457 49.06977 30871 ft 510 kts 94°
2026-05-08 12:20 26.48537 49.10924 30632 ft 508 kts 94°
2026-05-08 12:21 26.48617 49.14861 30398 ft 506 kts 94°
2026-05-08 12:21 26.48695 49.18781 30162 ft 504 kts 94°
2026-05-08 12:21 26.48771 49.22651 29931 ft 503 kts 94°
2026-05-08 12:21 26.48850 49.26558 29652 ft 500 kts 94°
2026-05-08 12:22 26.48926 49.30424 29327 ft 496 kts 94°
2026-05-08 12:22 26.49001 49.34261 28683 ft 492 kts 94°
2026-05-08 12:22 26.49074 49.38054 28072 ft 487 kts 94°
2026-05-08 12:22 26.49147 49.41819 27457 ft 482 kts 94°
2026-05-08 12:23 26.49217 49.45542 26844 ft 478 kts 93°
2026-05-08 12:23 26.49284 49.49239 26238 ft 474 kts 93°
2026-05-08 12:23 26.49349 49.52902 25629 ft 470 kts 93°
2026-05-08 12:23 26.49412 49.56535 25037 ft 466 kts 93°
2026-05-08 12:24 26.49472 49.60139 24455 ft 462 kts 93°
2026-05-08 12:24 26.49532 49.63712 23884 ft 458 kts 92°
2026-05-08 12:24 26.49592 49.67247 23307 ft 454 kts 92°
2026-05-08 12:24 26.49650 49.70748 22734 ft 448 kts 92°
2026-05-08 12:25 26.49704 49.74197 22211 ft 441 kts 92°
2026-05-08 12:25 26.49753 49.77601 21723 ft 435 kts 93°
2026-05-08 12:25 26.49713 49.80957 21229 ft 430 kts 95°
2026-05-08 12:25 26.49565 49.84268 20747 ft 425 kts 97°
2026-05-08 12:26 26.49351 49.87544 20258 ft 422 kts 97°
2026-05-08 12:26 26.49116 49.90797 19759 ft 420 kts 97°
2026-05-08 12:26 26.48888 49.94032 19250 ft 418 kts 97°
2026-05-08 12:26 26.48677 49.97264 18721 ft 416 kts 97°
2026-05-08 12:27 26.48486 50.00474 18200 ft 414 kts 96°
2026-05-08 12:27 26.48307 50.03682 17607 ft 412 kts 96°
2026-05-08 12:27 26.48136 50.06860 17032 ft 409 kts 95°
2026-05-08 12:27 26.47968 50.10014 16486 ft 405 kts 96°
2026-05-08 12:28 26.47798 50.13142 15937 ft 402 kts 96°
2026-05-08 12:28 26.47627 50.16237 15386 ft 398 kts 96°
2026-05-08 12:28 26.47456 50.19305 14839 ft 394 kts 95°
2026-05-08 12:28 26.47285 50.22334 14375 ft 388 kts 96°
2026-05-08 12:29 26.47111 50.25340 13790 ft 386 kts 95°
2026-05-08 12:29 26.46943 50.28240 13552 ft 362 kts 95°
2026-05-08 12:29 26.46779 50.31025 12435 ft 361 kts 94°
2026-05-08 12:29 26.46617 50.33771 11999 ft 343 kts 95°
2026-05-08 12:30 26.46466 50.36302 11837 ft 327 kts 95°
2026-05-08 12:30 26.46089 50.38829 11406 ft 332 kts 105°
2026-05-08 12:30 26.45386 50.41276 10940 ft 333 kts 109°
2026-05-08 12:30 26.44663 50.43718 10551 ft 325 kts 109°
2026-05-08 12:31 26.43975 50.46058 10208 ft 311 kts 109°
2026-05-08 12:31 26.43264 50.48341 9978 ft 309 kts 112°
2026-05-08 12:31 26.42466 50.50567 9749 ft 309 kts 113°
2026-05-08 12:31 26.41658 50.52784 9504 ft 310 kts 113°
2026-05-08 12:32 26.40841 50.55014 9256 ft 310 kts 112°
2026-05-08 12:32 26.40035 50.57198 9010 ft 308 kts 113°
2026-05-08 12:32 26.39217 50.59387 8759 ft 305 kts 113°
2026-05-08 12:32 26.38394 50.61571 8443 ft 306 kts 113°
2026-05-08 12:33 26.37563 50.63750 7907 ft 303 kts 113°
2026-05-08 12:33 26.36731 50.65895 7437 ft 299 kts 113°
2026-05-08 12:33 26.35912 50.68006 6970 ft 294 kts 113°
2026-05-08 12:33 26.35094 50.70096 6507 ft 294 kts 113°
2026-05-08 12:34 26.34275 50.72171 6034 ft 291 kts 113°
2026-05-08 12:34 26.33458 50.74224 5568 ft 291 kts 113°
2026-05-08 12:34 26.32613 50.76299 5082 ft 296 kts 112°
2026-05-08 12:34 26.31740 50.78397 4612 ft 300 kts 113°
2026-05-08 12:35 26.30844 50.80508 4117 ft 303 kts 112°
2026-05-08 12:35 26.29794 50.82562 3635 ft 309 kts 128°
2026-05-08 12:35 26.28111 50.84051 3173 ft 311 kts 153°
2026-05-08 12:35 26.26067 50.84684 2760 ft 300 kts 172°
2026-05-08 12:36 26.24055 50.84891 2498 ft 282 kts 187°
2026-05-08 12:36 26.22241 50.84340 2240 ft 262 kts 211°
2026-05-08 12:36 26.20807 50.83241 1980 ft 241 kts 231°
2026-05-08 12:36 26.19824 50.81839 1717 ft 221 kts 249°
2026-05-08 12:37 26.19280 50.80316 1555 ft 202 kts 265°
2026-05-08 12:37 26.19119 50.78847 1495 ft 180 kts 279°
2026-05-08 12:37 26.19240 50.77556 1476 ft 155 kts 293°
2026-05-08 12:37 26.19546 50.76499 1502 ft 136 kts 304°
2026-05-08 12:38 26.19834 50.75899 1506 ft 130 kts 312°
2026-05-08 12:38 26.20323 50.75057 1508 ft 130 kts 312°
2026-05-08 12:38 26.20812 50.74213 1508 ft 130 kts 311°
2026-05-08 12:38 26.21304 50.73364 1506 ft 131 kts 311°
2026-05-08 12:39 26.21798 50.72511 1457 ft 131 kts 310°
2026-05-08 12:39 26.22290 50.71659 1354 ft 130 kts 310°
2026-05-08 12:39 26.22779 50.70815 1216 ft 130 kts 309°
2026-05-08 12:39 26.23266 50.69972 1058 ft 130 kts 309°
2026-05-08 12:40 26.23756 50.69126 904 ft 130 kts 308°
2026-05-08 12:40 26.24243 50.68282 760 ft 129 kts 308°
2026-05-08 12:40 26.24727 50.67445 611 ft 128 kts 308°
2026-05-08 12:40 26.25213 50.66605 443 ft 129 kts 306°
2026-05-08 12:41 26.25697 50.65767 277 ft 127 kts 306°
2026-05-08 12:41 26.26179 50.64932 84 ft 129 kts 305°
2026-05-08 12:41 26.26656 50.64111 21 ft 117 kts 305°
2026-05-08 12:41 26.26990 50.63527 18 ft 42 kts 299°
2026-05-08 12:42 26.27125 50.63295 18 ft 29 kts 301°
2026-05-08 12:42 26.27198 50.63164 19 ft 17 kts 300°
2026-05-08 12:42 26.27239 50.63044 19 ft 12 kts 282°
2026-05-08 12:42 26.27254 50.62946 20 ft 14 kts 272°
2026-05-08 12:43 26.27248 50.62855 20 ft 11 kts 228°
2026-05-08 12:43 26.27180 50.62863 20 ft 12 kts 128°
2026-05-08 12:43 26.27107 50.62909 20 ft 14 kts 194°
2026-05-08 12:43 26.27021 50.62909 19 ft 14 kts 126°
2026-05-08 12:44 26.26991 50.62962 19 ft 5 kts 122°
2026-05-08 12:44 26.26985 50.62972 19 ft 2 kts 122°
2026-05-08 12:44 26.26963 50.62984 19 ft 6 kts 175°
2026-05-08 12:44 26.26917 50.62959 19 ft 7 kts 212°
2026-05-08 12:45 26.26902 50.62948 20 ft 3 kts 213°
2026-05-08 12:45 26.26885 50.62936 19 ft 0 kts 212°
2026-05-08 12:45 26.26884 50.62935 19 ft 0 kts 212°